RUM3908 SBSP-SBRJ

Flight info

Callsign RUM3908
Flight time 0h 40m
Altitude 25000
Route BAIAN3B NIBRU UZ171 KEVUN ASALU1A
Aircraft A319/M-SDE3FGHIRWY/LB1

Departure

Time 2026-05-04 11:34
Airport Congonhas–Deputado Freitas Nobre Airport (SBSP)

Arrival

Time 2026-05-04 12:14
Airport Santos Dumont Airport (SBRJ)
Time Latitude Longitude Altitude Speed Heading
2026-05-04 11:10 -23.62512 -46.65967 2601 ft 0 kts 237°
2026-05-04 11:28 -23.62500 -46.65947 2600 ft 4 kts 243°
2026-05-04 11:29 -23.62493 -46.65925 2601 ft 4 kts 305°
2026-05-04 11:29 -23.62509 -46.65911 2601 ft 2 kts 327°
2026-05-04 11:29 -23.62510 -46.65911 2601 ft 0 kts 327°
2026-05-04 11:31 -23.62491 -46.65915 2601 ft 6 kts 356°
2026-05-04 11:33 -23.62041 -46.66106 2589 ft 8 kts 68°
2026-05-04 11:33 -23.62048 -46.66077 2596 ft 4 kts 130°
2026-05-04 11:33 -23.62056 -46.66071 2589 ft 0 kts 145°
2026-05-04 11:34 -23.62071 -46.66060 2592 ft 21 kts 146°
2026-05-04 11:34 -23.62461 -46.65788 2604 ft 109 kts 148°
2026-05-04 11:34 -23.63288 -46.65204 2784 ft 157 kts 145°
2026-05-04 11:34 -23.64202 -46.64535 3555 ft 159 kts 145°
2026-05-04 11:35 -23.65089 -46.63786 4227 ft 169 kts 130°
2026-05-04 11:35 -23.65743 -46.62630 4520 ft 190 kts 116°
2026-05-04 11:35 -23.66357 -46.61250 4821 ft 213 kts 114°
2026-05-04 11:35 -23.67036 -46.59701 5124 ft 239 kts 115°
2026-05-04 11:36 -23.67810 -46.57986 5578 ft 263 kts 115°
2026-05-04 11:36 -23.68661 -46.56170 6351 ft 272 kts 116°
2026-05-04 11:36 -23.69546 -46.54345 7230 ft 278 kts 117°
2026-05-04 11:36 -23.70475 -46.52470 8085 ft 285 kts 117°
2026-05-04 11:37 -23.71328 -46.50497 8923 ft 289 kts 108°
2026-05-04 11:37 -23.71746 -46.48341 9666 ft 294 kts 93°
2026-05-04 11:37 -23.71664 -46.46088 10314 ft 305 kts 81°
2026-05-04 11:37 -23.71329 -46.43711 10584 ft 329 kts 81°
2026-05-04 11:38 -23.70961 -46.41183 11117 ft 342 kts 80°
2026-05-04 11:38 -23.70580 -46.38586 11814 ft 348 kts 81°
2026-05-04 11:38 -23.70200 -46.35986 12518 ft 354 kts 81°
2026-05-04 11:38 -23.69814 -46.33315 13227 ft 359 kts 81°
2026-05-04 11:39 -23.69429 -46.30605 13917 ft 363 kts 81°
2026-05-04 11:39 -23.69040 -46.27861 14596 ft 368 kts 81°
2026-05-04 11:40 -23.66583 -46.10722 18358 ft 393 kts 81°
2026-05-04 11:41 -23.66158 -46.07758 18941 ft 398 kts 81°
2026-05-04 11:41 -23.65727 -46.04760 19527 ft 402 kts 81°
2026-05-04 11:41 -23.65291 -46.01734 20116 ft 405 kts 81°
2026-05-04 11:41 -23.64852 -45.98680 20690 ft 409 kts 81°
2026-05-04 11:42 -23.64417 -45.95647 21245 ft 412 kts 81°
2026-05-04 11:42 -23.63969 -45.92534 21791 ft 416 kts 81°
2026-05-04 11:42 -23.63517 -45.89401 22329 ft 420 kts 81°
2026-05-04 11:42 -23.63058 -45.86239 22861 ft 423 kts 81°
2026-05-04 11:43 -23.62595 -45.83051 23370 ft 427 kts 81°
2026-05-04 11:43 -23.62129 -45.79841 23861 ft 430 kts 81°
2026-05-04 11:43 -23.61660 -45.76600 24340 ft 434 kts 81°
2026-05-04 11:43 -23.61185 -45.73326 24791 ft 437 kts 81°
2026-05-04 11:44 -23.60704 -45.70036 25140 ft 441 kts 81°
2026-05-04 11:44 -23.60225 -45.66773 25222 ft 436 kts 81°
2026-05-04 11:44 -23.59752 -45.63553 25237 ft 426 kts 81°
2026-05-04 11:44 -23.59304 -45.60493 25239 ft 423 kts 81°
2026-05-04 11:45 -23.58828 -45.57261 25237 ft 421 kts 81°
2026-05-04 11:45 -23.58364 -45.54103 25239 ft 421 kts 81°
2026-05-04 11:45 -23.57901 -45.50953 25239 ft 421 kts 81°
2026-05-04 11:45 -23.57441 -45.47798 25238 ft 421 kts 81°
2026-05-04 11:46 -23.56940 -45.44687 25239 ft 421 kts 78°
2026-05-04 11:46 -23.56331 -45.41567 25238 ft 421 kts 77°
2026-05-04 11:46 -23.55651 -45.38457 25240 ft 420 kts 76°
2026-05-04 11:46 -23.54946 -45.35361 25239 ft 421 kts 75°
2026-05-04 11:47 -23.54240 -45.32269 25234 ft 420 kts 76°
2026-05-04 11:47 -23.53549 -45.29173 25236 ft 420 kts 76°
2026-05-04 11:47 -23.52884 -45.26098 25235 ft 421 kts 77°
2026-05-04 11:47 -23.52224 -45.22987 25241 ft 420 kts 77°
2026-05-04 11:48 -23.51568 -45.19873 25242 ft 420 kts 77°
2026-05-04 11:48 -23.50914 -45.16762 25243 ft 420 kts 77°
2026-05-04 11:48 -23.50257 -45.13656 25242 ft 420 kts 76°
2026-05-04 11:48 -23.49606 -45.10596 25240 ft 420 kts 76°
2026-05-04 11:49 -23.48945 -45.07491 25238 ft 420 kts 76°
2026-05-04 11:49 -23.48282 -45.04391 25236 ft 420 kts 76°
2026-05-04 11:49 -23.47616 -45.01290 25234 ft 420 kts 76°
2026-05-04 11:49 -23.46947 -44.98191 25233 ft 420 kts 76°
2026-05-04 11:50 -23.46277 -44.95087 25231 ft 420 kts 76°
2026-05-04 11:50 -23.45613 -44.92028 24992 ft 412 kts 76°
2026-05-04 11:50 -23.44948 -44.89004 24596 ft 408 kts 76°
2026-05-04 11:50 -23.44283 -44.86013 24157 ft 403 kts 76°
2026-05-04 11:51 -23.43632 -44.83105 23601 ft 399 kts 76°
2026-05-04 11:51 -23.42977 -44.80185 23040 ft 394 kts 76°
2026-05-04 11:51 -23.42329 -44.77288 22458 ft 391 kts 76°
2026-05-04 11:51 -23.41687 -44.74418 21901 ft 387 kts 76°
2026-05-04 11:52 -23.41054 -44.71573 21353 ft 384 kts 76°
2026-05-04 11:52 -23.40437 -44.68795 20797 ft 380 kts 76°
2026-05-04 11:52 -23.39816 -44.66001 20325 ft 378 kts 76°
2026-05-04 11:52 -23.39196 -44.63221 19910 ft 375 kts 76°
2026-05-04 11:53 -23.38576 -44.60463 19492 ft 373 kts 76°
2026-05-04 11:53 -23.37958 -44.57721 19061 ft 370 kts 76°
2026-05-04 11:53 -23.37355 -44.55036 18666 ft 368 kts 76°
2026-05-04 11:53 -23.36749 -44.52339 18262 ft 365 kts 76°
2026-05-04 11:55 -23.31191 -44.34567 15579 ft 346 kts 64°
2026-05-04 11:55 -23.30173 -44.32195 15128 ft 344 kts 64°
2026-05-04 11:56 -23.29164 -44.29846 14713 ft 341 kts 64°
2026-05-04 11:56 -23.28162 -44.27516 14289 ft 338 kts 64°
2026-05-04 11:56 -23.27165 -44.25205 13904 ft 336 kts 64°
2026-05-04 11:56 -23.26187 -44.22934 13553 ft 334 kts 64°
2026-05-04 11:57 -23.25208 -44.20659 13196 ft 331 kts 64°
2026-05-04 11:57 -23.24236 -44.18400 12837 ft 328 kts 64°
2026-05-04 11:57 -23.23269 -44.16157 12472 ft 326 kts 64°
2026-05-04 11:57 -23.22310 -44.13935 12091 ft 324 kts 64°
2026-05-04 11:58 -23.21354 -44.11721 11704 ft 321 kts 64°
2026-05-04 11:58 -23.20416 -44.09552 11320 ft 318 kts 64°
2026-05-04 11:58 -23.19472 -44.07378 10903 ft 316 kts 64°
2026-05-04 11:58 -23.18508 -44.05233 10529 ft 313 kts 63°
2026-05-04 11:59 -23.17548 -44.03148 10173 ft 310 kts 63°
2026-05-04 11:59 -23.16594 -44.01089 10026 ft 300 kts 63°
2026-05-04 11:59 -23.15658 -43.99073 9732 ft 295 kts 63°
2026-05-04 11:59 -23.14765 -43.97067 9369 ft 293 kts 64°
2026-05-04 12:00 -23.13920 -43.95098 8998 ft 290 kts 65°
2026-05-04 12:00 -23.13081 -43.93115 8604 ft 288 kts 65°
2026-05-04 12:00 -23.12246 -43.91142 8263 ft 286 kts 65°
2026-05-04 12:00 -23.11412 -43.89179 8216 ft 286 kts 65°
2026-05-04 12:01 -23.10575 -43.87211 8220 ft 287 kts 65°
2026-05-04 12:01 -23.09733 -43.85229 8225 ft 288 kts 64°
2026-05-04 12:02 -23.04971 -43.74107 8222 ft 287 kts 65°
2026-05-04 12:03 -23.04124 -43.72140 8220 ft 287 kts 65°
2026-05-04 12:03 -23.03002 -43.69539 8219 ft 287 kts 65°
2026-05-04 12:03 -23.02153 -43.67593 7813 ft 283 kts 64°
2026-05-04 12:03 -23.01595 -43.66317 7466 ft 282 kts 64°
2026-05-04 12:04 -23.00470 -43.63751 7212 ft 280 kts 64°
2026-05-04 12:04 -22.99914 -43.62485 7215 ft 281 kts 64°
2026-05-04 12:04 -22.99068 -43.60563 7221 ft 281 kts 64°
2026-05-04 12:04 -22.98225 -43.58646 7224 ft 281 kts 64°
2026-05-04 12:05 -22.97389 -43.56749 6830 ft 276 kts 64°
2026-05-04 12:05 -22.96571 -43.54893 6227 ft 273 kts 64°
2026-05-04 12:05 -22.95752 -43.53032 6051 ft 274 kts 64°
2026-05-04 12:05 -22.94937 -43.51176 5999 ft 274 kts 65°
2026-05-04 12:06 -22.94114 -43.49279 5921 ft 273 kts 65°
2026-05-04 12:06 -22.93330 -43.47440 5456 ft 271 kts 65°
2026-05-04 12:06 -22.92544 -43.45577 4980 ft 270 kts 65°
2026-05-04 12:06 -22.91762 -43.43720 4552 ft 269 kts 65°
2026-05-04 12:07 -22.90993 -43.41887 4162 ft 265 kts 65°
2026-05-04 12:07 -22.90233 -43.40079 3875 ft 258 kts 65°
2026-05-04 12:07 -22.89514 -43.38368 3761 ft 245 kts 65°
2026-05-04 12:07 -22.88822 -43.36735 3634 ft 232 kts 65°
2026-05-04 12:08 -22.88359 -43.35104 3534 ft 221 kts 82°
2026-05-04 12:08 -22.88329 -43.33467 3320 ft 215 kts 92°
2026-05-04 12:08 -22.88387 -43.31849 3089 ft 212 kts 92°
2026-05-04 12:08 -22.88440 -43.30300 2962 ft 204 kts 92°
2026-05-04 12:09 -22.88490 -43.28787 2843 ft 197 kts 92°
2026-05-04 12:09 -22.88539 -43.27337 2790 ft 186 kts 92°
2026-05-04 12:09 -22.88724 -43.26004 2722 ft 173 kts 108°
2026-05-04 12:09 -22.89166 -43.24806 2466 ft 173 kts 111°
2026-05-04 12:10 -22.89615 -43.23604 2224 ft 170 kts 111°
2026-05-04 12:10 -22.90054 -43.22430 2010 ft 165 kts 113°
2026-05-04 12:10 -22.90495 -43.21294 1795 ft 162 kts 118°
2026-05-04 12:10 -22.91174 -43.20343 1590 ft 158 kts 138°
2026-05-04 12:11 -22.92062 -43.19708 1399 ft 146 kts 157°
2026-05-04 12:11 -22.93008 -43.19421 1213 ft 138 kts 174°
2026-05-04 12:11 -22.93925 -43.19182 1036 ft 139 kts 150°
2026-05-04 12:11 -22.94560 -43.18416 856 ft 138 kts 112°
2026-05-04 12:12 -22.94643 -43.17403 692 ft 136 kts 76°
2026-05-04 12:12 -22.94171 -43.16553 526 ft 134 kts 40°
2026-05-04 12:12 -22.93332 -43.16162 359 ft 132 kts
2026-05-04 12:12 -22.92414 -43.16207 197 ft 132 kts 356°
2026-05-04 12:13 -22.91498 -43.16265 42 ft 131 kts 356°
2026-05-04 12:14 -22.90531 -43.16553 23 ft 8 kts 192°
2026-05-04 12:15 -22.90627 -43.16550 22 ft 18 kts 175°
2026-05-04 12:15 -22.90751 -43.16543 22 ft 18 kts 175°
2026-05-04 12:15 -22.90879 -43.16549 22 ft 18 kts 176°
2026-05-04 12:15 -22.90966 -43.16542 22 ft 9 kts 176°
2026-05-04 12:16 -22.91002 -43.16544 22 ft 0 kts 196°
2026-05-04 12:16 -22.91012 -43.16554 22 ft 5 kts 241°
2026-05-04 12:16 -22.91014 -43.16606 22 ft 6 kts 267°
2026-05-04 12:16 -22.91014 -43.16611 22 ft 0 kts 267°